Location: Leedale
(52.5833°N, 114.4833°W)
Time: 07:47:18
(UTC+00:00)

BlueWalker 3 - Pass Details

Date: 08 August 2024
Orbit: 476 x 487 km, 53.2° (Epoch: 08 September)

Event Time Altitude Azimuth Distance (km) Brightness Sun altitude
Exits shadow 10:46:31 16° 212° (SSW) 1,351 3.5 -10.9°
Maximum altitude 10:49:09 39° 150° (SSE) 759 2.7 -10.7°
Drops below altitude 10° 10:52:44 10° 81° (E) 1,694 5.5 -10.3°
Sets 10:55:00 0° 73° (ENE) 2,579 6.8 -10.0°
